CZ-6A DEB

Satellite information

Favourite Embed

Satellite Type and Status

DEBRISIN ORBIT

Key statistics

Satellite CZ-6A DEB at a glance.

Uptime

969

Days in orbit

Revolutions

≈ 14.3

Per day

Orbit

SSO

Sun Synchronous Orbit

Inclination

98.7

Latest

Satellite identification and parameters

Extended collection of information and parameters for CZ-6A DEB.

Object identification

Identified? True

Debris? True

Object name: CZ-6A DEB

International designator: 2022-151AGL

Object number (NORAD): 56660

Object ID (CCSDS): 56660

Country: PEOPLES REPUBLIC OF CHINA (PRC)

Current information (Y/N): Y

RCS size: SMALL

Orbital parameters

Period: 100.421 minutes

Inclination: 98.6825 deg

SMA: 7156.671 km

Apoapsis: 857.362 km

Periapsis: 699.71 km

RAAN: 195.6618 deg

Eccentricy: 0.0110143

Argument of periapsis: 57.0234 deg

Mean anomaly: 304.1481 deg

Mean motion: 14.33957159 rev/day

Mean motion (dot): 0.00003169 rev/day2

B* drag term: 0.0010763 1/REarth

Two-line elements (TLE)

Creation date: June 29, 2025, 5:39 p.m.

Reference frame: TEME

Reference center: EARTH

Epoch: June 28, 2025, 11:51 p.m. UTC

TLE line 0: 0 CZ-6A DEB

TLE line 1: 1 56660U 22151AGL 25179.99439412 .00003169 00000-0 10763-2 0 9997

TLE line 2: 2 56660 98.6825 195.6618 0110143 57.0234 304.1481 14.33957159113722

Live tracking on map

Real-time ground track for satellite CZ-6A DEB.

In-orbit conjunctions

A list of the most updated potential collisions computed for object CZ-6A DEB.

Target Orbit TCA Probability of collision Miss distance Type
COSMOS 2237 LEO 2025-05-05 18:43:57 0.0001336306 911.0 (m) PAYLOAD
METEOR 1-22 LEO 2025-01-22 14:26:25 0.0003028485 562.0 (m) PAYLOAD
DELTA 1 DEB SSO 2024-11-12 19:31:44 0.000150235 170.0 (m) DEBRIS

Associated space launch

Chinese satellite reported for atmospheric/ocean/environmental/spatial parameter research purposes, details TBD.

CZ-6A DEB was lifted into orbit during the mission ‘Long March 6A | Yunhai 3’, on board a Long March 6A space rocket.

The launch took place on Nov. 11, 2022, 10:52 p.m. from Launch Complex 9A.

For more information about the launch, click the button.

Launch to space Long March 6A | Yunhai 3
Long March 6A | Yunhai 3

Agency: N/A

Status: Launch Successful

Launch date: Nov. 11, 2022, 10:52 p.m. UTC

Rocket: Long March 6A

Launch pad: Launch Complex 9A

Location: Taiyuan Satellite Launch Center, People's Republic of China

...

Latest news about this satellite

There are no fresh news available about this satellite. Check back as we update our databases every day.


Newsletter sign-up

Weekly statistics, charts and insights to help you stay on top of the space industry.